Vertical_Velocity
23 0 3 5 4 -0 -3 -2 -0 4 -3 -5 -4 -10 -5 3 1 6 -1 -0 6 0 -0 -0 -0 -0 -1 -1 -1 -2 -2 -2 0 1 -2 -0 0 -0 -1 0 1 -1 -2
-1 1 2 -3 1 4 7 1 -3 -4 -1 -3 5 -1 1 5 1 3 0 4 2 1 -1 0 -0 -0 0 -1 -2 -2 -2 -2 -2 -2 1 -0 3 2 -0 -2 -3 -3 -1
-2 -5 -5 2 3 1 -1 -2 1 7 -0 3 -2 -8 1 -4 -6 -5 -4 3 3 1 -1 1 -1 -0 0 -0 -1 -2 -3 -4 -1 1 -3 -7 -2 -4 5 -0 -2 -1 -2
0 -1 -1 -6 -0 4 -0 8 -0 2 -3 2 -4 -3 8 6 7 5 5 5 2 0 1 1 -0 -0 0 -1 -1 -2 -4 -3 -2 -1 -2 -1 -1 -8 -12 2 2 -3 -1
5 -4 -1 5 8 -3 4 4 7 -3 -0 -1 0 6 5 3 2 3 3 3 1 1 0 1 0 -0 -1 -2 -1 -2 -4 -3 -1 -1 -2 -1 -1 -3 -5 -11 -4 5 5
0 6 4 2 3 3 -4 2 1 2 1 -0 1 5 4 1 3 3 -1 -1 1 2 1 -0 0 -0 -2 0 -1 -3 -4 -3 -1 -2 -1 -2 -3 -4 -4 -6 -6 -11 -2
-1 -2 -2 -4 -4 -6 1 5 -0 -6 -1 -2 -0 1 3 5 7 7 3 2 3 3 3 2 -1 -0 -1 -1 -2 -3 -3 -3 -2 -2 -2 -1 -2 -3 -2 -4 -5 -11 -3
-1 -8 -2 -1 1 4 5 3 -1 -0 -3 1 2 3 1 3 5 5 3 4 4 5 1 -1 0 1 -1 -2 -2 -2 -2 -1 -1 -3 -1 -1 -3 -3 -4 -7 -9 -6 -4
12 8 4 3 1 -1 -0 4 4 2 -1 7 4 2 0 1 3 4 4 1 2 3 1 1 3 1 -0 -2 -1 -3 -2 0 -3 -2 -0 -0 -3 -3 -3 -4 -5 -10 -18
5 9 4 -1 -1 1 2 -2 1 2 9 9 4 4 8 6 6 3 0 3 1 0 2 2 2 0 1 -2 -2 -1 -1 -1 -1 -1 -0 -2 -2 -2 -4 -3 -3 -3 -8
1 -2 2 5 4 -2 -3 4 2 0 1 2 3 2 4 4 4 3 3 1 0 -0 2 2 1 -2 -0 -0 -2 -0 -1 -1 -1 -1 -1 -1 -2 -3 -3 -3 -3 -3 -7
3 3 2 1 2 7 2 -0 -0 2 7 6 3 2 3 6 7 2 1 1 2 2 1 -0 -1 -1 -2 -1 1 -0 -0 -1 -2 -1 -1 -2 -1 -2 -3 -2 -3 -5 -1
-4 -1 -3 -2 -0 -1 3 2 -3 1 1 1 3 4 4 5 3 1 2 1 1 -1 -0 -0 -1 -2 -1 1 1 0 -1 -2 -0 -1 -1 -0 -1 -0 -1 -5 -2 -3 -1
4 2 0 -4 -2 2 3 3 0 0 1 4 3 2 5 6 4 3 1 1 1 0 1 2 1 -4 -0 -0 0 -1 -2 -1 -1 -1 0 -0 -3 -3 -3 -2 -0 1 -2
-3 -2 2 1 3 4 5 3 -0 0 1 2 2 3 2 1 0 -2 -1 -0 -1 1 -0 1 -1 -2 0 -0 -1 -3 -2 -1 -2 0 -1 -1 -4 -3 -3 -7 -4 -4 -4
1 1 -4 2 4 4 3 4 7 9 5 3 2 2 -1 1 1 1 -0 -0 -0 -0 -1 -0 1 0 -2 -1 -1 -3 -2 -1 1 1 0 -2 -4 -2 -1 2 0 -4 -10
9 11 0 -2 -0 -2 -1 3 6 3 6 4 1 0 1 1 1 -0 -1 -1 -0 -1 -1 -1 0 -0 1 -2 -3 -2 1 -0 -0 -1 -1 -0 0 -2 -1 1 2 5 -1
-3 1 6 -3 -2 1 2 -2 -3 4 4 4 3 1 0 0 3 2 2 1 2 2 2 1 2 1 -0 -3 -2 1 -1 -0 -2 -1 -5 -1 -0 -2 -2 -3 -2 -4 -0
1 1 5 5 2 -3 3 2 -1 -0 3 4 4 3 3 4 3 3 3 2 3 4 3 2 2 0 -1 -2 -3 1 1 -1 -2 -2 -4 -2 1 1 -3 -6 -4 3 2
2 4 2 4 4 -1 -3 2 1 1 4 6 7 7 6 2 1 2 2 2 0 1 3 2 -1 0 -0 -2 2 2 1 0 -2 -1 -1 -1 -3 -2 -4 -6 -3 -1 1
1 3 3 1 1 1 2 1 1 0 2 3 4 4 3 2 3 3 2 2 2 1 1 -1 2 -2 0 3 1 -1 1 1 -2 0 3 -3 -4 -1 -3 -1 -5 -8 -4
-0 0 5 5 3 3 1 1 0 2 2 1 2 3 2 4 3 5 2 1 1 1 0 3 1 2 1 0 -0 -2 -0 0 0 -1 -3 -5 -4 -1 -6 -4 -2 -3 -3
1 3 4 2 3 2 -3 -1 0 -1 -1 -3 -4 -1 -1 5 0 3 3 1 1 4 4 2 3 0 1 1 -2 -1 -0 1 -1 -2 -4 -4 -2 -5 -1 -1 -6 -5 -1
7 3 1 5 8 10 7 4 -2 0 3 2 -1 -1 2 -0 2 3 0 5 4 1 2 2 -0 0 1 1 2 2 -3 -0 -5 -3 -1 -0 -4 -7 0 2 -1 -2 -4
7 1 3 5 5 4 -0 1 3 3 2 1 5 -3 2 5 9 13 7 1 0 0 3 3 -0 -1 1 1 -1 1 -0 -1 -5 -2 -1 -2 0 4 4 1 -5 -2 -3
7 7 5 6 5 2 1 4 5 6 9 6 4 8 12 10 6 3 3 0 1 2 2 -2 1 1 2 -0 -2 -1 -1 -5 -3 -0 1 -1 0 2 0 -7 -3 -2 -1
Height
3041 3043 3045 3049 3053 3057 3061 3065 3068 3072 3074 3078 3082 3084 3089 3092 3096 3099 3102 3103 3105 3107 3110 3112 3114 3115 3117 3117 3116 3116 3115 3114 3113 3111 3110 3108 3106 3103 3099 3096 3092 3088 3083
3030 3033 3035 3038 3043 3049 3053 3057 3061 3064 3069 3072 3078 3079 3085 3088 3092 3093 3094 3097 3100 3102 3104 3106 3108 3110 3111 3111 3111 3111 3110 3108 3106 3105 3104 3102 3101 3097 3093 3089 3085 3081 3076
3018 3022 3026 3030 3034 3036 3043 3048 3052 3057 3061 3065 3069 3071 3075 3078 3080 3083 3088 3092 3094 3096 3098 3100 3102 3105 3106 3106 3105 3105 3103 3102 3101 3098 3096 3092 3091 3089 3089 3084 3078 3074 3067
3010 3014 3017 3020 3025 3031 3036 3039 3043 3049 3051 3058 3060 3063 3068 3071 3076 3079 3083 3085 3087 3089 3092 3094 3097 3099 3100 3100 3099 3099 3097 3096 3094 3091 3088 3085 3081 3077 3078 3080 3074 3069 3062
3002 3004 3008 3013 3019 3022 3025 3031 3035 3038 3043 3048 3051 3056 3059 3064 3068 3072 3075 3078 3080 3083 3086 3089 3091 3093 3094 3093 3093 3092 3091 3089 3087 3085 3081 3078 3073 3068 3063 3063 3064 3062 3053
2992 2996 3000 3004 3008 3013 3018 3021 3024 3030 3033 3037 3042 3047 3051 3055 3059 3063 3067 3070 3073 3076 3080 3083 3085 3086 3087 3086 3086 3085 3084 3083 3080 3077 3074 3071 3066 3061 3054 3047 3043 3043 3047
2982 2987 2991 2995 3001 3003 3008 3012 3015 3020 3024 3029 3033 3039 3043 3048 3053 3057 3060 3063 3067 3071 3074 3076 3077 3079 3080 3080 3079 3079 3078 3076 3073 3070 3067 3063 3058 3053 3047 3040 3034 3026 3025
2972 2977 2981 2986 2990 2994 2999 3003 3006 3011 3015 3020 3025 3030 3035 3040 3045 3049 3052 3056 3061 3064 3065 3067 3070 3073 3074 3074 3073 3072 3070 3068 3065 3062 3060 3055 3050 3046 3039 3033 3023 3016 3012
2963 2965 2971 2976 2979 2982 2985 2991 2996 3001 3005 3011 3016 3020 3026 3031 3036 3041 3045 3048 3052 3054 3057 3060 3063 3066 3067 3067 3067 3066 3064 3061 3058 3055 3052 3048 3043 3038 3032 3025 3017 3007 2995
2950 2955 2960 2965 2968 2972 2976 2980 2984 2990 2995 3000 3005 3011 3018 3023 3029 3032 3036 3040 3044 3047 3050 3054 3057 3059 3060 3061 3060 3059 3057 3054 3051 3048 3046 3041 3036 3031 3024 3018 3011 3004 2994
2940 2944 2949 2954 2959 2963 2967 2971 2975 2978 2983 2988 2994 3000 3008 3016 3021 3024 3028 3031 3036 3040 3044 3047 3050 3052 3053 3054 3053 3052 3050 3048 3045 3042 3039 3033 3028 3023 3016 3010 3005 2997 2989
2936 2939 2942 2945 2948 2953 2958 2962 2965 2968 2974 2979 2984 2991 2999 3006 3010 3014 3018 3023 3029 3033 3036 3040 3042 3045 3047 3047 3046 3045 3043 3041 3038 3034 3030 3026 3020 3015 3009 3003 2997 2989 2982
2931 2933 2936 2938 2940 2943 2948 2953 2956 2960 2964 2968 2974 2981 2989 2995 3001 3005 3011 3017 3022 3026 3029 3032 3035 3038 3039 3039 3039 3037 3036 3034 3030 3026 3022 3017 3012 3007 3001 2995 2989 2981 2974
2925 2927 2929 2932 2934 2936 2940 2944 2948 2952 2956 2961 2966 2972 2980 2987 2993 2999 3005 3011 3015 3018 3022 3024 3027 3030 3031 3032 3031 3030 3029 3026 3022 3018 3014 3010 3004 2999 2992 2986 2981 2974 2964
2921 2923 2924 2925 2928 2931 2933 2937 2940 2945 2949 2953 2959 2965 2972 2979 2986 2992 2999 3004 3007 3011 3014 3017 3019 3021 3023 3024 3024 3023 3021 3019 3015 3010 3006 3002 2997 2991 2984 2976 2970 2963 2954
2914 2915 2917 2918 2921 2924 2926 2929 2932 2936 2941 2946 2952 2959 2965 2972 2979 2986 2991 2996 3000 3003 3006 3009 3011 3013 3015 3017 3017 3015 3013 3010 3007 3004 2999 2995 2989 2983 2977 2971 2964 2956 2947
2906 2907 2910 2911 2915 2917 2919 2923 2926 2930 2935 2940 2946 2953 2959 2966 2974 2980 2986 2989 2993 2996 2998 3001 3004 3006 3008 3010 3009 3007 3005 3003 2999 2996 2991 2988 2982 2976 2969 2963 2957 2952 2943
2904 2906 2906 2908 2909 2911 2913 2917 2921 2926 2931 2936 2941 2948 2955 2962 2968 2973 2978 2982 2986 2988 2990 2993 2996 2999 3001 3002 3000 2999 2997 2995 2992 2988 2982 2978 2975 2969 2961 2954 2946 2939 2930
2898 2901 2903 2904 2905 2906 2910 2912 2917 2923 2927 2932 2937 2943 2948 2955 2961 2967 2972 2975 2978 2980 2983 2986 2989 2992 2994 2994 2992 2991 2990 2987 2984 2980 2976 2971 2967 2961 2955 2946 2937 2930 2922
2893 2895 2898 2899 2901 2903 2906 2910 2913 2918 2924 2929 2934 2939 2944 2950 2956 2961 2965 2968 2971 2973 2976 2979 2982 2985 2986 2985 2985 2983 2982 2980 2978 2974 2970 2964 2959 2953 2946 2938 2929 2921 2913
2887 2890 2892 2895 2897 2898 2902 2907 2910 2914 2919 2925 2930 2934 2938 2944 2950 2954 2957 2960 2963 2966 2970 2973 2976 2977 2977 2977 2976 2975 2974 2973 2970 2967 2963 2958 2953 2946 2940 2932 2923 2913 2904
2877 2882 2886 2887 2890 2893 2898 2902 2906 2911 2915 2920 2926 2930 2935 2939 2943 2947 2950 2953 2956 2960 2963 2966 2968 2969 2969 2969 2969 2968 2966 2963 2962 2958 2954 2949 2943 2938 2931 2923 2915 2907 2897
2868 2872 2878 2881 2883 2886 2890 2896 2901 2906 2911 2916 2921 2925 2930 2934 2937 2941 2943 2946 2949 2953 2956 2958 2960 2960 2961 2962 2962 2961 2959 2957 2954 2949 2945 2940 2935 2930 2922 2916 2910 2902 2892
2863 2864 2868 2873 2878 2881 2885 2890 2894 2899 2904 2909 2913 2918 2923 2926 2930 2933 2935 2939 2943 2946 2948 2950 2951 2953 2955 2956 2955 2954 2952 2950 2947 2943 2938 2934 2929 2921 2916 2912 2906 2896 2886
2857 2860 2863 2866 2870 2874 2879 2884 2888 2893 2897 2901 2906 2910 2914 2917 2921 2926 2930 2933 2936 2939 2941 2943 2944 2947 2949 2949 2948 2948 2946 2944 2941 2936 2932 2929 2923 2918 2913 2909 2900 2891 2880
2855 2856 2859 2861 2864 2867 2872 2877 2882 2886 2890 2894 2898 2903 2908 2913 2917 2920 2923 2926 2929 2932 2934 2936 2940 2942 2943 2942 2943 2942 2940 2937 2933 2930 2926 2921 2917 2911 2904 2897 2889 2881 2871